This is the latest recevied weather packets stored in our database for station/object DJ4RO-13. If no packets are shown the sender has not sent any weather packets the latest 10 day(s).
| Time | Temp. | Humidity | Pressure | Rain* | Wind** | Luminosity | Snow |
|---|---|---|---|---|---|---|---|
| 1776963710 | 16.67° C | 51% | 1025 hPa | 0 mm | - | 35 W/m² | - |
| 1776963390 | 16.67° C | 52% | 1025.1 hPa | 0 mm | - | 37 W/m² | - |
| 1776963070 | 16.67° C | 52% | 1025.1 hPa | 0 mm | - | 41 W/m² | - |
| 1776962751 | 16.67° C | 51% | 1025.2 hPa | 0 mm | - | 42 W/m² | - |
| 1776962430 | 16.67° C | 51% | 1025.2 hPa | 0 mm | - | 44 W/m² | - |
| 1776962110 | 16.67° C | 51% | 1025.4 hPa | 0 mm | - | 48 W/m² | - |
| 1776961790 | 16.67° C | 50% | 1025.3 hPa | 0 mm | - | 57 W/m² | - |
| 1776961472 | 17.22° C | 50% | 1025.5 hPa | 0 mm | - | 70 W/m² | - |
| 1776961112 | 17.22° C | 50% | 1025.4 hPa | 0 mm | - | 83 W/m² | - |
| 1776960812 | 17.22° C | 51% | 1025.2 hPa | 0 mm | - | 92 W/m² | - |
| 1776960494 | 17.22° C | 50% | 1025.5 hPa | 0 mm | - | 108 W/m² | - |
| 1776960174 | 17.22° C | 51% | 1025.7 hPa | 0 mm | - | 103 W/m² | - |
| 1776959852 | 16.67° C | 51% | 1025.5 hPa | 0 mm | - | 122 W/m² | - |
| 1776959534 | 17.22° C | 50% | 1025.5 hPa | 0 mm | - | 130 W/m² | - |
| 1776959214 | 17.22° C | 51% | 1025.6 hPa | 0 mm | - | 141 W/m² | - |
| 1776958892 | 16.67° C | 52% | 1025.4 hPa | 0 mm | - | 151 W/m² | - |
| 1776958574 | 17.22° C | 53% | 1025.7 hPa | 0 mm | - | 162 W/m² | - |
| 1776958254 | 17.22° C | 52% | 1025.8 hPa | 0 mm | - | 177 W/m² | - |
| 1776957933 | 16.67° C | 53% | 1025.8 hPa | 0 mm | - | 189 W/m² | - |
| 1776957614 | 17.22° C | 53% | 1026 hPa | 0 mm | - | 207 W/m² | - |
| 1776957294 | 16.67° C | 53% | 1025.9 hPa | 0 mm | - | 214 W/m² | - |
| 1776956972 | 16.67° C | 54% | 1026.1 hPa | 0 mm | - | 225 W/m² | - |
| 1776956654 | 16.67° C | 54% | 1026 hPa | 0 mm | - | 242 W/m² | - |
| 1776956334 | 16.67° C | 54% | 1026.3 hPa | 0 mm | - | 249 W/m² | - |
| 1776956012 | 17.22° C | 54% | 1026.2 hPa | 0 mm | - | 256 W/m² | - |
* Rain latest hour (hover to see other rain measurements)
** Current wind speed in m/s (hover to see current wind gust speed)